Theta_e
305 305 305 304 305 305 305 304 304 304 307 310 310 310 308 307 306 310 310 309 309 313 314 317 316 319 319 319 318 316 323 325 325 323 325 327 335 323 330 331 336 341 349 350 351
304 304 304 304 305 306 306 305 304 304 306 310 310 310 307 307 310 312 309 309 308 310 314 317 318 318 320 319 320 321 323 324 322 323 324 328 324 323 323 326 332 337 351 350 349
304 304 304 304 304 306 306 305 304 304 305 310 310 310 307 308 311 309 313 312 309 309 313 313 317 318 318 318 319 320 323 321 322 321 323 323 322 322 323 326 333 334 351 350 349
304 304 304 304 304 306 305 305 305 305 305 309 310 309 307 311 310 310 312 313 313 310 312 312 316 317 317 318 317 319 319 321 321 321 320 321 320 322 323 327 323 331 350 351 349
304 304 304 304 305 306 306 307 307 306 306 308 310 307 309 310 310 308 312 316 318 312 313 315 316 316 317 317 316 317 318 317 319 320 320 319 320 320 320 322 322 335 353 352 351
305 305 304 305 305 306 308 310 311 312 307 307 310 307 312 310 308 309 310 315 320 314 311 314 316 316 317 317 317 317 316 317 317 318 318 318 320 319 323 323 323 342 354 354 351
305 305 305 306 306 307 311 313 313 314 314 308 308 309 311 311 309 309 309 314 316 312 312 313 314 317 316 316 315 314 316 317 316 317 317 318 319 319 321 323 325 336 348 353 353
305 305 306 307 307 308 311 312 312 313 311 309 308 313 312 311 311 311 310 316 314 312 312 313 313 314 315 314 314 315 315 317 317 316 317 318 319 321 321 322 329 329 341 353 353
305 305 307 307 307 311 311 310 312 309 308 307 312 311 314 313 313 316 312 314 315 314 313 312 315 316 314 317 316 314 317 316 316 315 317 318 319 320 319 323 322 328 337 352 354
305 306 308 308 310 310 310 309 309 314 313 313 315 314 314 314 314 314 314 314 315 315 314 314 312 316 314 316 318 316 316 315 316 316 316 317 317 318 319 326 327 330 343 354 355
305 307 309 309 310 309 308 308 309 310 308 310 311 312 311 312 313 315 314 314 314 316 317 314 315 315 314 315 315 314 315 316 315 315 315 317 317 317 319 319 324 331 334 345 356
305 308 309 309 309 309 308 309 308 307 310 309 308 308 308 310 311 313 313 317 316 317 313 314 317 315 314 313 313 314 315 316 315 314 314 316 316 317 317 318 319 327 332 336 347
305 308 308 309 309 308 307 306 305 305 310 311 311 313 314 311 313 314 314 315 317 316 315 317 316 315 312 313 313 314 315 315 315 315 314 315 317 318 318 318 319 320 323 329 335
305 307 308 308 308 307 307 305 306 306 313 313 315 314 313 314 315 314 311 314 314 318 314 314 314 313 313 314 314 315 314 314 315 315 317 316 317 319 318 318 319 320 322 325 332
305 306 306 307 306 307 305 306 307 309 312 315 313 311 311 313 313 314 310 313 315 315 314 316 313 312 314 315 314 315 314 314 315 317 316 318 317 318 317 319 320 320 321 323 326
305 306 307 306 304 304 306 308 311 316 313 313 310 312 313 311 312 312 311 311 312 315 315 315 314 313 315 314 313 314 315 316 315 317 319 319 318 318 319 319 320 321 320 321 323
305 306 307 305 304 305 307 311 314 314 311 310 309 311 311 310 312 311 311 311 314 319 319 318 317 317 317 318 316 315 318 319 319 319 320 318 318 319 320 320 321 322 319 318 318
305 307 306 304 303 307 307 315 312 309 309 308 308 310 310 308 310 311 311 311 308 312 317 319 320 316 316 318 321 320 319 319 319 319 318 316 318 319 323 324 324 324 325 324 323
304 306 307 303 304 307 312 313 310 308 307 307 308 310 310 307 307 312 308 308 306 310 315 316 317 313 316 314 316 320 319 319 320 318 320 319 319 319 326 325 325 325 326 325 325
303 304 306 304 305 305 310 308 306 305 306 307 309 307 309 306 306 309 309 304 304 306 308 311 314 312 311 313 313 318 315 323 321 324 323 320 321 323 326 325 323 322 322 323 324
303 306 305 304 304 307 308 306 306 304 306 306 307 306 305 304 303 306 306 302 303 306 306 305 311 311 310 311 312 313 317 317 321 323 324 322 322 324 323 321 321 320 320 320 321
302 308 304 303 306 303 305 304 304 303 304 304 304 304 304 302 302 305 306 303 304 305 304 303 309 309 308 307 306 308 309 311 323 323 323 323 324 314 315 317 319 316 318 318 319
303 303 303 302 305 305 304 305 304 303 303 303 303 303 302 302 302 303 302 302 303 304 302 301 305 301 303 310 309 309 306 305 309 314 320 326 324 313 312 314 313 314 315 317 320
303 306 305 302 301 303 304 305 305 304 303 302 303 302 302 302 302 302 301 302 302 302 304 304 305 302 299 303 306 303 304 302 303 309 316 318 319 317 314 310 310 312 313 317 320
300 302 300 304 304 302 302 303 305 306 305 303 303 303 302 303 302 302 301 302 302 302 303 303 302 301 302 301 301 301 301 301 301 302 304 307 306 309 310 305 305 310 311 317 320
302 302 300 301 301 302 301 303 305 304 304 304 304 304 304 303 303 303 302 303 303 301 302 302 302 302 303 302 302 302 302 301 302 302 302 302 302 303 303 305 307 309 311 315 318
297 297 299 300 301 303 302 303 303 303 304 304 303 304 304 303 304 304 304 303 303 303 303 303 303 302 303 301 302 303 303 303 302 302 302 302 302 303 303 304 307 308 307 309 315
Wind_Speed
30 29 28 28 26 22 19 17 15 13 12 12 10 9 10 9 5 5 8 10 7 5 11 13 12 10 4 3 2 3 5 9 11 10 7 3 4 1 2 6 5 4 3 1 27
30 30 30 28 26 23 19 16 14 13 11 11 11 9 9 8 6 10 10 11 11 17 12 13 12 14 5 5 5 6 6 10 5 8 7 5 3 0 4 7 8 7 9 17 23
32 32 32 31 27 23 19 15 13 12 11 10 9 8 6 6 4 4 6 13 12 15 19 5 13 11 10 4 7 6 14 9 7 10 4 4 5 5 3 10 8 8 7 14 19
33 33 33 32 28 22 16 16 15 13 10 9 8 6 1 2 4 2 3 7 7 19 13 12 9 9 10 12 6 8 10 10 5 4 5 7 5 7 8 11 7 10 11 15 16
35 34 35 33 28 21 18 16 14 11 9 7 7 2 2 2 7 5 5 2 13 22 20 13 13 6 11 9 6 11 10 5 12 14 13 14 17 12 15 16 5 5 17 18 18
37 37 39 32 26 20 17 13 13 12 8 7 4 7 2 5 3 6 4 2 9 21 21 13 11 5 6 5 12 3 9 14 12 16 11 13 18 8 17 13 3 7 16 17 21
39 40 38 31 22 19 14 12 10 12 8 6 5 5 2 12 4 5 11 4 12 15 16 13 5 10 7 4 4 3 8 9 10 9 9 10 17 12 20 11 5 8 13 16 18
41 42 36 28 21 15 11 8 10 9 5 4 10 3 6 5 8 12 7 4 14 11 8 12 7 4 1 0 1 2 2 9 4 8 8 14 21 15 17 8 22 17 11 12 16
44 44 33 25 19 10 8 7 9 9 8 9 4 1 7 5 5 3 10 9 14 3 4 12 6 2 3 5 5 3 8 7 5 3 3 12 10 9 10 15 19 21 15 11 12
45 42 29 23 13 10 5 3 6 4 5 2 1 4 5 2 6 8 7 18 6 12 6 4 3 5 4 7 13 9 8 5 6 3 1 5 9 11 14 14 17 22 14 12 14
45 38 27 16 13 15 9 3 4 1 3 5 8 6 16 13 7 1 6 5 7 4 7 5 7 10 11 14 13 9 7 9 4 5 5 11 10 14 14 13 16 22 21 13 15
44 32 24 8 16 7 16 6 4 5 10 7 11 9 14 8 4 3 5 8 6 10 8 5 11 14 13 10 11 10 11 10 10 9 6 10 13 14 16 14 15 16 17 20 15
43 29 22 10 10 14 7 8 10 3 4 6 3 3 3 4 1 4 3 3 7 9 14 12 5 14 10 8 10 11 13 9 11 10 5 9 17 14 14 14 16 20 21 21 23
42 27 18 14 3 13 1 23 17 11 2 4 4 5 7 1 3 4 8 4 4 14 9 8 8 10 10 12 13 13 13 14 13 7 9 3 9 7 7 10 12 19 19 21 22
42 27 16 12 7 4 15 23 5 4 4 6 5 5 6 5 8 4 8 4 7 5 5 9 7 10 11 16 16 14 12 15 13 9 5 11 7 7 5 11 14 16 18 19 20
43 26 10 9 14 13 23 7 3 1 4 4 6 10 8 8 8 10 8 8 2 2 3 5 4 2 7 9 13 4 5 3 1 4 11 13 9 11 9 8 9 10 14 15 15
45 20 6 9 13 25 12 2 1 3 5 5 5 7 5 7 7 11 6 12 7 5 7 6 2 3 6 6 4 10 7 6 8 8 15 6 9 16 10 8 7 11 12 11 9
45 11 10 15 27 13 2 2 5 1 1 2 3 3 4 9 5 7 3 4 10 6 2 3 5 6 8 4 4 5 11 10 12 13 14 4 10 7 6 8 8 8 11 10 10
42 8 5 33 18 5 1 2 2 2 2 5 4 1 1 3 5 4 5 3 6 9 4 3 4 2 4 6 4 3 6 6 8 4 8 9 14 8 10 15 16 16 15 17 16
24 10 7 39 11 2 3 3 2 1 1 0 2 3 2 5 5 5 3 4 5 6 3 3 6 1 4 3 2 3 3 4 5 12 15 10 10 3 10 13 14 15 16 17 17
9 4 18 32 7 6 3 2 1 3 1 2 1 0 1 3 3 2 2 4 4 4 4 3 3 2 2 7 5 2 2 1 3 4 10 13 9 2 6 9 11 13 15 16 17
7 3 24 26 5 2 2 4 5 2 3 2 2 2 1 1 1 2 1 1 3 3 1 4 3 5 3 7 9 3 3 1 4 10 4 7 5 5 5 7 9 13 15 17 17
5 3 14 12 4 3 4 3 3 3 2 1 2 0 1 2 2 2 0 2 3 2 2 2 2 4 4 4 2 3 3 3 0 0 6 7 5 4 9 10 12 13 15 17 17
3 4 4 5 3 3 5 3 4 6 3 3 2 2 2 2 2 1 3 2 2 2 3 1 2 4 5 4 3 4 5 3 3 3 4 10 10 11 10 14 17 16 15 15 16
4 2 2 4 3 4 3 3 4 4 6 6 3 5 1 3 3 5 3 2 2 3 3 1 4 3 8 11 11 13 13 9 10 10 7 10 15 17 17 20 18 13 15 14 14
3 3 2 2 4 5 2 2 4 4 5 4 3 8 5 5 5 5 3 4 5 2 4 2 4 4 12 14 16 19 17 15 15 15 16 17 24 17 19 15 13 12 12 12 12
3 1 1 2 2 4 2 4 3 8 4 1 6 8 6 4 6 9 9 10 11 8 8 6 5 4 4 2 4 12 18 19 10 12 13 14 18 11 15 14 14 14 13 16 12
Wind_Direction
9 6 1 357 352 346 340 336 334 335 332 330 327 326 321 312 294 246 237 233 219 188 161 161 163 168 139 150 160 159 227 227 218 205 228 172 190 65 59 274 255 223 184 76 149
8 4 1 357 353 345 337 332 329 328 325 324 321 317 318 314 300 242 278 241 204 187 154 156 165 156 171 178 177 211 221 224 246 221 231 213 214 263 303 300 288 276 96 131 148
7 2 0 356 352 345 336 331 324 319 317 319 320 314 314 327 278 225 91 100 178 185 211 167 153 165 190 178 182 183 231 224 254 243 276 249 268 213 245 291 242 294 188 150 155
5 1 358 354 350 346 341 328 319 314 308 307 310 299 282 353 300 139 339 276 184 185 156 178 162 174 189 196 181 223 235 232 248 235 283 284 316 273 198 246 303 305 180 165 174
2 359 355 353 348 344 338 327 316 309 296 289 303 215 130 249 253 200 11 16 187 181 171 161 174 163 194 195 185 231 232 216 244 274 290 301 285 276 268 265 307 285 169 180 181
1 356 352 352 348 344 341 333 323 315 292 275 273 166 147 263 210 215 325 47 184 171 181 167 180 169 161 189 207 251 225 246 256 254 260 269 274 293 278 248 232 195 198 192 188
360 354 351 349 348 345 344 339 344 334 307 244 191 147 200 253 244 239 299 285 175 175 167 179 147 192 153 182 238 285 261 252 235 231 229 226 258 244 259 270 230 221 221 204 203
357 353 352 350 346 348 354 10 4 10 43 152 151 121 254 266 277 280 228 106 157 148 168 168 137 122 227 88 307 255 234 240 204 187 225 199 247 248 258 269 261 237 235 219 203
357 353 353 353 345 352 359 24 37 48 82 119 119 155 269 290 285 7 173 146 163 147 120 152 169 179 180 241 257 223 242 221 253 197 206 204 242 231 295 271 240 247 225 212 222
357 355 357 356 7 12 15 31 36 51 73 70 111 279 261 1 321 311 167 151 138 145 129 137 133 177 164 212 228 234 230 235 245 156 227 220 268 289 295 289 242 223 201 186 204
358 357 360 12 26 38 29 18 353 11 346 249 274 272 284 293 294 91 133 155 124 165 174 173 196 213 217 217 234 254 263 262 242 248 284 274 265 274 279 288 273 234 216 206 196
360 357 2 21 34 53 51 73 77 303 300 264 255 261 275 269 281 320 179 181 185 203 135 164 225 216 222 217 221 234 253 253 279 260 218 276 258 263 266 263 263 256 236 215 217
0 356 1 351 9 25 74 82 328 304 264 308 231 282 338 149 253 354 305 188 205 187 200 216 205 218 198 200 208 224 232 239 259 292 249 270 272 241 252 233 249 255 253 242 224
359 356 358 1 28 350 332 332 331 164 327 316 5 33 1 167 78 12 8 261 226 233 203 233 234 202 189 214 207 240 212 235 254 261 273 232 276 251 257 238 236 239 249 240 228
356 354 2 25 335 327 315 331 121 165 310 15 6 342 359 58 323 38 14 252 250 236 196 224 200 194 217 227 202 247 214 217 241 249 255 235 260 264 237 250 244 243 246 253 241
353 349 347 356 338 319 324 341 166 208 249 12 11 358 5 21 9 332 4 29 48 298 340 305 313 254 258 250 202 202 184 112 136 221 245 245 243 265 248 252 259 247 251 243 241
349 350 9 15 326 325 325 177 189 216 0 17 351 349 354 358 16 10 41 44 24 341 19 332 49 3 19 274 177 196 185 229 226 213 245 226 233 257 296 347 345 327 329 345 324
346 4 29 354 334 325 302 121 210 58 13 14 347 323 35 6 25 19 32 34 31 360 23 343 202 16 350 16 316 240 220 217 233 239 253 165 241 246 40 25 18 10 356 356 352
346 350 350 346 341 314 201 167 154 178 323 334 320 21 55 31 354 15 59 36 27 13 333 288 242 338 332 338 326 144 224 345 246 271 239 237 241 180 42 29 23 21 15 2 351
342 334 346 349 350 26 74 106 130 11 340 47 280 14 315 353 348 19 27 21 354 18 350 14 280 69 320 318 69 5 19 205 220 230 235 220 240 245 11 8 5 13 10 0 354
354 350 352 355 16 50 76 89 83 50 162 16 156 236 69 355 336 339 47 71 7 357 49 354 245 286 268 13 304 295 217 313 282 270 249 244 216 23 7 6 0 2 2 357 350
349 332 355 359 48 25 61 334 336 346 27 74 99 109 195 63 308 257 230 93 357 19 1 13 291 274 41 117 53 59 65 60 251 214 259 281 198 70 41 15 7 7 1 356 349
349 297 356 21 50 16 332 326 323 355 46 94 131 169 163 159 287 249 212 167 24 24 19 350 217 284 180 211 199 61 45 19 268 141 238 255 195 64 26 15 7 357 352 353 353
345 337 5 42 45 6 350 360 326 2 75 21 115 123 142 207 217 259 258 207 295 253 111 214 256 271 294 347 335 279 273 292 271 249 262 248 289 280 319 341 342 347 347 348 354
12 60 32 343 18 351 303 328 314 348 12 13 107 51 271 237 234 263 238 276 259 289 143 311 282 265 280 289 283 284 271 262 244 249 244 284 284 282 294 308 305 309 338 340 356
1 356 18 324 304 316 354 29 23 2 335 1 48 350 316 251 258 280 286 269 273 174 172 161 263 268 282 266 267 277 268 250 248 249 260 271 273 282 285 291 282 286 317 334 335
42 67 280 45 341 314 23 18 329 329 276 311 21 345 318 299 316 289 271 267 261 243 239 237 258 228 261 241 269 272 263 249 235 235 227 249 258 286 284 277 276 289 301 302 309